Saint Bonnet de Bellac- Haute Vienne - France
Donnes mto: samedi, 26/11/2011
Date Horaire Temp. E. Hum. E. P.atmo. Pluie Vent Direction Direction Ensoleilleme Solaire P. de rose Temp au vent Rafales
26/11/2011 00:00 6,2 C 95 % 1031,8 hPa 0,0 mm 0,0 km/h (0 Bft) E-NE 67 0 min 0 W/m 5,5 C 6,2 C 0,0 km/h (0 Bft)
26/11/2011 00:05 6,2 C 95 % 1031,9 hPa 0,0 mm 0,0 km/h (0 Bft) E-NE 67 0 min 0 W/m 5,5 C 6,2 C 0,0 km/h (0 Bft)
26/11/2011 00:10 6,1 C 95 % 1031,7 hPa 0,1 mm 0,0 km/h (0 Bft) E-NE 67 0 min 0 W/m 5,4 C 6,1 C 0,0 km/h (0 Bft)
26/11/2011 00:15 6,2 C 95 % 1031,8 hPa 0,1 mm 0,0 km/h (0 Bft) E-NE 67 0 min 0 W/m 5,5 C 6,2 C 0,0 km/h (0 Bft)
26/11/2011 00:20 6,2 C 95 % 1031,7 hPa 0,1 mm 0,0 km/h (0 Bft) E-NE 67 0 min 0 W/m 5,5 C 6,2 C 0,0 km/h (0 Bft)
26/11/2011 00:25 6,2 C 95 % 1031,7 hPa 0,0 mm 0,0 km/h (0 Bft) E-NE 67 0 min 0 W/m 5,5 C 6,2 C 0,0 km/h (0 Bft)
26/11/2011 00:30 6,3 C 95 % 1031,8 hPa 0,0 mm 0,0 km/h (0 Bft) E-NE 67 0 min 0 W/m 5,6 C 6,3 C 0,0 km/h (0 Bft)
26/11/2011 00:35 6,3 C 95 % 1031,7 hPa 0,0 mm 0,0 km/h (0 Bft) E-NE 67 0 min 0 W/m 5,6 C 6,3 C 0,0 km/h (0 Bft)
26/11/2011 00:40 6,3 C 95 % 1031,7 hPa 0,0 mm 0,0 km/h (0 Bft) E-NE 67 0 min 0 W/m 5,6 C 6,3 C 0,0 km/h (0 Bft)
26/11/2011 00:45 6,3 C 95 % 1031,6 hPa 0,0 mm 0,0 km/h (0 Bft) E-NE 67 0 min 0 W/m 5,6 C 6,3 C 0,0 km/h (0 Bft)
26/11/2011 00:50 6,4 C 95 % 1031,6 hPa 0,0 mm 0,0 km/h (0 Bft) E-NE 67 0 min 0 W/m 5,7 C 6,4 C 0,0 km/h (0 Bft)
26/11/2011 00:55 6,4 C 95 % 1031,6 hPa 0,0 mm 0,0 km/h (0 Bft) E-NE 67 0 min 0 W/m 5,7 C 6,4 C 0,0 km/h (0 Bft)
26/11/2011 01:00 6,4 C 95 % 1031,6 hPa 0,0 mm 0,0 km/h (0 Bft) E-NE 67 0 min 0 W/m 5,7 C 6,4 C 0,0 km/h (0 Bft)
26/11/2011 01:05 6,5 C 95 % 1031,6 hPa 0,0 mm 0,0 km/h (0 Bft) E-NE 67 0 min 0 W/m 5,8 C 6,5 C 0,0 km/h (0 Bft)
26/11/2011 01:10 6,5 C 95 % 1031,5 hPa 0,1 mm 0,0 km/h (0 Bft) E-NE 67 0 min 0 W/m 5,8 C 6,5 C 0,0 km/h (0 Bft)
26/11/2011 01:15 6,5 C 95 % 1031,6 hPa 0,0 mm 0,0 km/h (0 Bft) E-NE 67 0 min 0 W/m 5,8 C 6,5 C 0,0 km/h (0 Bft)
26/11/2011 01:20 6,5 C 95 % 1031,6 hPa 0,0 mm 0,0 km/h (0 Bft) E-NE 67 0 min 0 W/m 5,8 C 6,5 C 0,0 km/h (0 Bft)
26/11/2011 01:25 6,5 C 95 % 1031,6 hPa 0,0 mm 0,0 km/h (0 Bft) E-NE 67 0 min 0 W/m 5,8 C 6,5 C 0,0 km/h (0 Bft)
26/11/2011 01:30 6,5 C 95 % 1031,7 hPa 0,0 mm 0,0 km/h (0 Bft) E-NE 67 0 min 0 W/m 5,8 C 6,5 C 0,0 km/h (0 Bft)
26/11/2011 01:35 6,6 C 95 % 1031,6 hPa 0,0 mm 0,0 km/h (0 Bft) E-NE 67 0 min 0 W/m 5,9 C 6,6 C 0,0 km/h (0 Bft)
26/11/2011 01:40 6,6 C 95 % 1031,6 hPa 0,0 mm 0,0 km/h (0 Bft) E-NE 67 0 min 0 W/m 5,9 C 6,6 C 0,0 km/h (0 Bft)
26/11/2011 01:45 6,6 C 95 % 1031,5 hPa 0,0 mm 0,0 km/h (0 Bft) E-NE 67 0 min 0 W/m 5,9 C 6,6 C 0,0 km/h (0 Bft)
26/11/2011 01:50 6,6 C 95 % 1031,6 hPa 0,0 mm 0,0 km/h (0 Bft) E-NE 67 0 min 0 W/m 5,9 C 6,6 C 0,0 km/h (0 Bft)
26/11/2011 01:55 6,8 C 95 % 1031,5 hPa 0,0 mm 0,0 km/h (0 Bft) E-NE 67 0 min 0 W/m 6,1 C 6,8 C 0,0 km/h (0 Bft)
26/11/2011 02:02 6,8 C 95 % 1031,5 hPa 0,0 mm 0,0 km/h (0 Bft) E-NE 67 0 min 0 W/m 6,1 C 6,8 C 0,0 km/h (0 Bft)
26/11/2011 02:05 6,8 C 95 % 1031,6 hPa 0,0 mm 0,0 km/h (0 Bft) E-NE 67 0 min 0 W/m 6,1 C 6,8 C 0,0 km/h (0 Bft)
26/11/2011 02:10 6,8 C 95 % 1031,6 hPa 0,0 mm 0,0 km/h (0 Bft) E-NE 67 0 min 0 W/m 6,1 C 6,8 C 0,0 km/h (0 Bft)
26/11/2011 02:15 6,8 C 95 % 1031,6 hPa 0,0 mm 0,0 km/h (0 Bft) E-NE 67 0 min 0 W/m 6,1 C 6,8 C 0,0 km/h (0 Bft)
26/11/2011 02:20 6,8 C 95 % 1031,4 hPa 0,0 mm 0,0 km/h (0 Bft) E-NE 67 0 min 0 W/m 6,1 C 6,8 C 0,0 km/h (0 Bft)
26/11/2011 02:25 6,9 C 95 % 1031,5 hPa 0,0 mm 0,0 km/h (0 Bft) SO 225 0 min 0 W/m 6,2 C 6,9 C 0,0 km/h (0 Bft)
26/11/2011 02:30 6,9 C 95 % 1031,5 hPa 0,0 mm 0,0 km/h (0 Bft) N 360 0 min 0 W/m 6,2 C 6,9 C 0,0 km/h (0 Bft)
26/11/2011 02:35 6,9 C 95 % 1031,5 hPa 0,0 mm 0,0 km/h (0 Bft) SO 225 0 min 0 W/m 6,2 C 6,9 C 1,4 km/h (1 Bft)
26/11/2011 02:40 6,9 C 95 % 1031,6 hPa 0,0 mm 0,4 km/h (0 Bft) S-SO 202 0 min 0 W/m 6,2 C 6,9 C 0,4 km/h (0 Bft)
26/11/2011 02:45 6,9 C 95 % 1031,6 hPa 0,0 mm 0,0 km/h (0 Bft) S-SO 202 0 min 0 W/m 6,2 C 6,9 C 0,0 km/h (0 Bft)
26/11/2011 02:50 6,9 C 95 % 1031,7 hPa 0,0 mm 0,0 km/h (0 Bft) S-SO 202 0 min 0 W/m 6,2 C 6,9 C 0,0 km/h (0 Bft)
26/11/2011 02:55 7,0 C 95 % 1031,7 hPa 0,0 mm 0,0 km/h (0 Bft) S-SO 202 0 min 0 W/m 6,3 C 7,0 C 0,0 km/h (0 Bft)
26/11/2011 03:00 7,0 C 95 % 1031,7 hPa 0,0 mm 0,0 km/h (0 Bft) S-SO 202 0 min 0 W/m 6,3 C 7,0 C 0,0 km/h (0 Bft)
26/11/2011 03:05 7,1 C 95 % 1031,8 hPa 0,0 mm 0,0 km/h (0 Bft) S-SO 202 0 min 0 W/m 6,4 C 7,1 C 0,0 km/h (0 Bft)
26/11/2011 03:10 7,0 C 95 % 1031,8 hPa 0,0 mm 0,0 km/h (0 Bft) S-SO 202 0 min 0 W/m 6,3 C 7,0 C 0,0 km/h (0 Bft)
26/11/2011 03:15 6,9 C 95 % 1031,7 hPa 0,0 mm 0,0 km/h (0 Bft) SO 225 0 min 0 W/m 6,2 C 6,9 C 0,0 km/h (0 Bft)
26/11/2011 03:20 6,9 C 95 % 1031,8 hPa 0,0 mm 0,0 km/h (0 Bft) SO 225 0 min 0 W/m 6,2 C 6,9 C 0,0 km/h (0 Bft)
26/11/2011 03:25 7,0 C 95 % 1031,8 hPa 0,0 mm 0,0 km/h (0 Bft) SO 225 0 min 0 W/m 6,3 C 7,0 C 0,0 km/h (0 Bft)
26/11/2011 03:30 7,1 C 95 % 1031,8 hPa 0,0 mm 0,0 km/h (0 Bft) SO 225 0 min 0 W/m 6,4 C 7,1 C 0,0 km/h (0 Bft)
26/11/2011 03:35 7,1 C 95 % 1031,8 hPa 0,0 mm 0,0 km/h (0 Bft) SO 225 0 min 0 W/m 6,4 C 7,1 C 0,0 km/h (0 Bft)
26/11/2011 03:40 7,1 C 95 % 1031,7 hPa 0,0 mm 0,0 km/h (0 Bft) SO 225 0 min 0 W/m 6,4 C 7,1 C 0,0 km/h (0 Bft)
26/11/2011 03:45 7,1 C 96 % 1031,7 hPa 0,0 mm 0,0 km/h (0 Bft) SO 225 0 min 0 W/m 6,5 C 7,1 C 0,0 km/h (0 Bft)
26/11/2011 03:50 7,1 C 96 % 1031,6 hPa 0,0 mm 0,0 km/h (0 Bft) SO 225 0 min 0 W/m 6,5 C 7,1 C 0,0 km/h (0 Bft)
26/11/2011 03:55 7,1 C 96 % 1031,7 hPa 0,0 mm 0,0 km/h (0 Bft) SO 225 0 min 0 W/m 6,5 C 7,1 C 0,0 km/h (0 Bft)
26/11/2011 04:00 7,1 C 96 % 1031,7 hPa 0,0 mm 0,0 km/h (0 Bft) SO 225 0 min 0 W/m 6,5 C 7,1 C 0,0 km/h (0 Bft)
26/11/2011 04:05 7,1 C 96 % 1031,8 hPa 0,0 mm 0,0 km/h (0 Bft) SO 225 0 min 0 W/m 6,5 C 7,1 C 0,0 km/h (0 Bft)
26/11/2011 04:10 7,1 C 96 % 1031,7 hPa 0,0 mm 0,0 km/h (0 Bft) SO 225 0 min 0 W/m 6,5 C 7,1 C 0,0 km/h (0 Bft)
26/11/2011 04:15 7,1 C 96 % 1031,8 hPa 0,0 mm 0,0 km/h (0 Bft) SO 225 0 min 0 W/m 6,5 C 7,1 C 0,0 km/h (0 Bft)
26/11/2011 04:20 7,1 C 96 % 1031,8 hPa 0,0 mm 0,0 km/h (0 Bft) SO 225 0 min 0 W/m 6,5 C 7,1 C 0,0 km/h (0 Bft)
26/11/2011 04:25 7,1 C 96 % 1031,8 hPa 0,0 mm 0,0 km/h (0 Bft) SO 225 0 min 0 W/m 6,5 C 7,1 C 0,0 km/h (0 Bft)
26/11/2011 04:30 7,1 C 96 % 1031,8 hPa 0,0 mm 0,0 km/h (0 Bft) SO 225 0 min 0 W/m 6,5 C 7,1 C 0,0 km/h (0 Bft)
26/11/2011 04:35 7,1 C 96 % 1031,7 hPa 0,0 mm 0,0 km/h (0 Bft) SO 225 0 min 0 W/m 6,5 C 7,1 C 0,0 km/h (0 Bft)
26/11/2011 04:40 7,1 C 95 % 1031,6 hPa 0,0 mm 0,0 km/h (0 Bft) SO 225 0 min 0 W/m 6,4 C 7,1 C 0,0 km/h (0 Bft)
26/11/2011 04:45 7,1 C 95 % 1031,6 hPa 0,0 mm 0,0 km/h (0 Bft) SO 225 0 min 0 W/m 6,4 C 7,1 C 0,0 km/h (0 Bft)
26/11/2011 04:50 7,1 C 96 % 1031,5 hPa 0,0 mm 0,0 km/h (0 Bft) S-SO 202 0 min 0 W/m 6,5 C 7,1 C 3,2 km/h (1 Bft)
26/11/2011 04:55 7,1 C 96 % 1031,4 hPa 0,0 mm 0,0 km/h (0 Bft) SO 225 0 min 0 W/m 6,5 C 7,1 C 0,0 km/h (0 Bft)
26/11/2011 05:00 7,1 C 95 % 1031,4 hPa 0,0 mm 0,0 km/h (0 Bft) SO 225 0 min 0 W/m 6,4 C 7,1 C 0,0 km/h (0 Bft)
26/11/2011 05:05 7,2 C 96 % 1031,3 hPa 0,0 mm 0,4 km/h (0 Bft) SO 225 0 min 0 W/m 6,6 C 7,2 C 0,4 km/h (0 Bft)
26/11/2011 05:10 7,2 C 96 % 1031,3 hPa 0,0 mm 0,0 km/h (0 Bft) SO 225 0 min 0 W/m 6,6 C 7,2 C 0,0 km/h (0 Bft)
26/11/2011 05:15 7,2 C 96 % 1031,4 hPa 0,0 mm 0,0 km/h (0 Bft) SO 225 0 min 0 W/m 6,6 C 7,2 C 0,0 km/h (0 Bft)
26/11/2011 05:20 7,2 C 96 % 1031,3 hPa 0,0 mm 0,0 km/h (0 Bft) SO 225 0 min 0 W/m 6,6 C 7,2 C 0,0 km/h (0 Bft)
26/11/2011 05:25 7,2 C 96 % 1031,5 hPa 0,0 mm 0,0 km/h (0 Bft) SO 225 0 min 0 W/m 6,6 C 7,2 C 0,0 km/h (0 Bft)
26/11/2011 05:30 7,2 C 96 % 1031,5 hPa 0,0 mm 0,0 km/h (0 Bft) SO 225 0 min 0 W/m 6,6 C 7,2 C 0,0 km/h (0 Bft)
26/11/2011 05:35 7,2 C 96 % 1031,5 hPa 0,0 mm 0,0 km/h (0 Bft) SO 225 0 min 0 W/m 6,6 C 7,2 C 0,0 km/h (0 Bft)
26/11/2011 05:40 7,2 C 96 % 1031,6 hPa 0,0 mm 0,0 km/h (0 Bft) SO 225 0 min 0 W/m 6,6 C 7,2 C 0,0 km/h (0 Bft)
26/11/2011 05:45 7,2 C 96 % 1031,5 hPa 0,0 mm 0,0 km/h (0 Bft) SO 225 0 min 0 W/m 6,6 C 7,2 C 0,0 km/h (0 Bft)
26/11/2011 05:50 7,2 C 96 % 1031,4 hPa 0,0 mm 0,0 km/h (0 Bft) SO 225 0 min 0 W/m 6,6 C 7,2 C 0,0 km/h (0 Bft)
26/11/2011 05:55 7,3 C 96 % 1031,2 hPa 0,0 mm 0,0 km/h (0 Bft) SO 225 0 min 0 W/m 6,7 C 7,3 C 0,0 km/h (0 Bft)
26/11/2011 06:00 7,3 C 96 % 1031,3 hPa 0,0 mm 0,0 km/h (0 Bft) SO 225 0 min 0 W/m 6,7 C 7,3 C 0,0 km/h (0 Bft)
26/11/2011 06:05 7,3 C 96 % 1031,3 hPa 0,0 mm 0,0 km/h (0 Bft) SO 225 0 min 0 W/m 6,7 C 7,3 C 0,0 km/h (0 Bft)
26/11/2011 06:10 7,3 C 96 % 1031,2 hPa 0,0 mm 0,0 km/h (0 Bft) SO 225 0 min 0 W/m 6,7 C 7,3 C 0,0 km/h (0 Bft)
26/11/2011 06:15 7,3 C 96 % 1031,4 hPa 0,0 mm 0,0 km/h (0 Bft) SO 225 0 min 0 W/m 6,7 C 7,3 C 0,0 km/h (0 Bft)
26/11/2011 06:20 7,3 C 96 % 1031,3 hPa 0,0 mm 0,0 km/h (0 Bft) SO 225 0 min 0 W/m 6,7 C 7,3 C 0,0 km/h (0 Bft)
26/11/2011 06:25 7,4 C 96 % 1031,5 hPa 0,0 mm 0,0 km/h (0 Bft) SO 225 0 min 0 W/m 6,8 C 7,4 C 0,0 km/h (0 Bft)
26/11/2011 06:30 7,3 C 96 % 1031,4 hPa 0,0 mm 0,0 km/h (0 Bft) SO 225 0 min 0 W/m 6,7 C 7,3 C 0,0 km/h (0 Bft)
26/11/2011 06:35 7,4 C 96 % 1031,5 hPa 0,0 mm 0,0 km/h (0 Bft) SO 225 0 min 0 W/m 6,8 C 7,4 C 0,0 km/h (0 Bft)
26/11/2011 06:40 7,4 C 96 % 1031,5 hPa 0,0 mm 0,0 km/h (0 Bft) SO 225 0 min 0 W/m 6,8 C 7,4 C 0,0 km/h (0 Bft)
26/11/2011 06:45 7,4 C 96 % 1031,5 hPa 0,0 mm 0,0 km/h (0 Bft) SO 225 0 min 0 W/m 6,8 C 7,4 C 0,0 km/h (0 Bft)
26/11/2011 06:50 7,4 C 96 % 1031,6 hPa 0,0 mm 0,0 km/h (0 Bft) SO 225 0 min 0 W/m 6,8 C 7,4 C 0,0 km/h (0 Bft)
26/11/2011 06:55 7,4 C 96 % 1031,6 hPa 0,0 mm 0,0 km/h (0 Bft) SO 225 0 min 0 W/m 6,8 C 7,4 C 0,0 km/h (0 Bft)
26/11/2011 07:00 7,3 C 96 % 1031,6 hPa 0,0 mm 0,0 km/h (0 Bft) SO 225 0 min 0 W/m 6,7 C 7,3 C 0,0 km/h (0 Bft)
26/11/2011 07:05 7,3 C 96 % 1031,6 hPa 0,0 mm 0,0 km/h (0 Bft) SO 225 0 min 0 W/m 6,7 C 7,3 C 0,0 km/h (0 Bft)
26/11/2011 07:10 7,3 C 96 % 1031,7 hPa 0,0 mm 0,0 km/h (0 Bft) SO 225 0 min 0 W/m 6,7 C 7,3 C 0,0 km/h (0 Bft)
26/11/2011 07:15 7,4 C 96 % 1031,7 hPa 0,0 mm 0,0 km/h (0 Bft) SO 225 0 min 0 W/m 6,8 C 7,4 C 0,0 km/h (0 Bft)
26/11/2011 07:20 7,4 C 96 % 1031,7 hPa 0,0 mm 0,0 km/h (0 Bft) S-SO 202 0 min 0 W/m 6,8 C 7,4 C 0,0 km/h (0 Bft)
26/11/2011 07:25 7,4 C 96 % 1031,8 hPa 0,0 mm 0,0 km/h (0 Bft) S-SO 202 0 min 0 W/m 6,8 C 7,4 C 0,0 km/h (0 Bft)
26/11/2011 07:30 7,4 C 96 % 1031,9 hPa 0,0 mm 0,0 km/h (0 Bft) S-SO 202 0 min 0 W/m 6,8 C 7,4 C 0,0 km/h (0 Bft)
26/11/2011 07:35 7,4 C 96 % 1031,8 hPa 0,0 mm 0,0 km/h (0 Bft) S-SO 202 0 min 0 W/m 6,8 C 7,4 C 2,9 km/h (1 Bft)
26/11/2011 07:40 7,4 C 96 % 1031,7 hPa 0,0 mm 0,0 km/h (0 Bft) S-SE 157 0 min 0 W/m 6,8 C 7,4 C 0,0 km/h (0 Bft)
26/11/2011 07:45 7,4 C 96 % 1031,7 hPa 0,0 mm 0,0 km/h (0 Bft) S 180 0 min 0 W/m 6,8 C 7,4 C 0,0 km/h (0 Bft)
26/11/2011 07:50 7,4 C 96 % 1031,8 hPa 0,0 mm 0,0 km/h (0 Bft) S-SO 202 0 min 0 W/m 6,8 C 7,4 C 0,0 km/h (0 Bft)
26/11/2011 07:55 7,4 C 96 % 1031,8 hPa 0,0 mm 0,0 km/h (0 Bft) S-SO 202 0 min 0 W/m 6,8 C 7,4 C 0,0 km/h (0 Bft)
26/11/2011 08:00 7,4 C 96 % 1031,9 hPa 0,0 mm 0,0 km/h (0 Bft) S-SO 202 0 min 0 W/m 6,8 C 7,4 C 0,0 km/h (0 Bft)
26/11/2011 08:05 7,4 C 96 % 1032,1 hPa 0,0 mm 0,0 km/h (0 Bft) S-SO 202 0 min 0 W/m 6,8 C 7,4 C 0,0 km/h (0 Bft)
26/11/2011 08:10 7,4 C 96 % 1032,1 hPa 0,0 mm 0,0 km/h (0 Bft) S-SO 202 0 min 0 W/m 6,8 C 7,4 C 0,0 km/h (0 Bft)
26/11/2011 08:15 7,4 C 96 % 1032,2 hPa 0,0 mm 0,0 km/h (0 Bft) S-SO 202 0 min 0 W/m 6,8 C 7,4 C 0,0 km/h (0 Bft)
26/11/2011 08:20 7,4 C 96 % 1032,1 hPa 0,0 mm 0,0 km/h (0 Bft) S-SO 202 0 min 0 W/m 6,8 C 7,4 C 0,0 km/h (0 Bft)
26/11/2011 08:25 7,4 C 96 % 1032,2 hPa 0,0 mm 0,0 km/h (0 Bft) S-SO 202 0 min 0 W/m 6,8 C 7,4 C 0,0 km/h (0 Bft)
26/11/2011 08:30 7,4 C 96 % 1032,3 hPa 0,0 mm 0,0 km/h (0 Bft) S-SO 202 0 min 0 W/m 6,8 C 7,4 C 0,0 km/h (0 Bft)
26/11/2011 08:35 7,4 C 96 % 1032,3 hPa 0,0 mm 0,0 km/h (0 Bft) S-SO 202 0 min 0 W/m 6,8 C 7,4 C 0,0 km/h (0 Bft)
26/11/2011 08:40 7,5 C 96 % 1032,3 hPa 0,0 mm 0,0 km/h (0 Bft) S-SO 202 0 min 0 W/m 6,9 C 7,5 C 0,0 km/h (0 Bft)
26/11/2011 08:45 7,5 C 96 % 1032,2 hPa 0,0 mm 0,0 km/h (0 Bft) SE 135 0 min 0 W/m 6,9 C 7,5 C 0,0 km/h (0 Bft)
26/11/2011 08:50 7,5 C 96 % 1032,1 hPa 0,0 mm 0,0 km/h (0 Bft) SE 135 0 min 0 W/m 6,9 C 7,5 C 0,0 km/h (0 Bft)
26/11/2011 08:55 7,6 C 96 % 1032,2 hPa 0,0 mm 0,0 km/h (0 Bft) E 90 0 min 0 W/m 7,0 C 7,6 C 0,0 km/h (0 Bft)
26/11/2011 09:00 7,6 C 96 % 1032,3 hPa 0,0 mm 0,0 km/h (0 Bft) N-NE 22 0 min 0 W/m 7,0 C 7,6 C 3,2 km/h (1 Bft)
26/11/2011 09:05 7,6 C 96 % 1032,4 hPa 0,0 mm 0,0 km/h (0 Bft) N-NE 22 0 min 0 W/m 7,0 C 7,6 C 3,2 km/h (1 Bft)
26/11/2011 09:10 7,6 C 96 % 1032,4 hPa 0,0 mm 0,0 km/h (0 Bft) N-NE 22 0 min 0 W/m 7,0 C 7,6 C 0,0 km/h (0 Bft)
26/11/2011 09:15 7,6 C 96 % 1032,4 hPa 0,0 mm 0,0 km/h (0 Bft) N-NE 22 0 min 0 W/m 7,0 C 7,6 C 0,0 km/h (0 Bft)
26/11/2011 09:20 7,6 C 96 % 1032,3 hPa 0,0 mm 0,0 km/h (0 Bft) N-NE 22 0 min 0 W/m 7,0 C 7,6 C 0,0 km/h (0 Bft)
26/11/2011 09:25 7,6 C 96 % 1032,3 hPa 0,0 mm 0,0 km/h (0 Bft) N-NE 22 0 min 0 W/m 7,0 C 7,6 C 0,0 km/h (0 Bft)
26/11/2011 09:30 7,6 C 96 % 1032,2 hPa 0,0 mm 0,0 km/h (0 Bft) N-NE 22 0 min 0 W/m 7,0 C 7,6 C 0,0 km/h (0 Bft)
26/11/2011 09:35 7,6 C 96 % 1032,3 hPa 0,0 mm 0,0 km/h (0 Bft) N-NE 22 0 min 0 W/m 7,0 C 7,6 C 0,0 km/h (0 Bft)
26/11/2011 09:40 7,7 C 96 % 1032,2 hPa 0,0 mm 0,0 km/h (0 Bft) N-NE 22 0 min 0 W/m 7,1 C 7,7 C 0,0 km/h (0 Bft)
26/11/2011 09:45 7,8 C 96 % 1032,2 hPa 0,0 mm 0,0 km/h (0 Bft) N-NE 22 0 min 0 W/m 7,2 C 7,8 C 0,0 km/h (0 Bft)
26/11/2011 09:50 7,8 C 96 % 1032,2 hPa 0,0 mm 0,0 km/h (0 Bft) N-NE 22 0 min 0 W/m 7,2 C 7,8 C 0,0 km/h (0 Bft)
26/11/2011 09:55 7,8 C 96 % 1032,2 hPa 0,0 mm 0,0 km/h (0 Bft) N-NE 22 0 min 0 W/m 7,2 C 7,8 C 0,0 km/h (0 Bft)
26/11/2011 10:00 7,8 C 96 % 1032,3 hPa 0,0 mm 0,0 km/h (0 Bft) N-NE 22 0 min 0 W/m 7,2 C 7,8 C 0,0 km/h (0 Bft)
26/11/2011 10:05 7,9 C 96 % 1032,4 hPa 0,0 mm 0,0 km/h (0 Bft) N-NE 22 0 min 0 W/m 7,3 C 7,9 C 0,0 km/h (0 Bft)
26/11/2011 10:10 7,9 C 96 % 1032,4 hPa 0,0 mm 0,0 km/h (0 Bft) N-NE 22 0 min 0 W/m 7,3 C 7,9 C 0,0 km/h (0 Bft)
26/11/2011 10:15 8,0 C 96 % 1032,6 hPa 0,0 mm 0,0 km/h (0 Bft) N-NE 22 0 min 0 W/m 7,4 C 8,0 C 0,0 km/h (0 Bft)
26/11/2011 10:20 8,1 C 96 % 1032,5 hPa 0,0 mm 0,0 km/h (0 Bft) N-NE 22 0 min 0 W/m 7,5 C 8,1 C 0,0 km/h (0 Bft)
26/11/2011 10:25 8,2 C 96 % 1032,5 hPa 0,0 mm 0,0 km/h (0 Bft) N-NE 22 0 min 0 W/m 7,6 C 8,2 C 0,0 km/h (0 Bft)
26/11/2011 10:30 8,2 C 96 % 1032,5 hPa 0,0 mm 0,0 km/h (0 Bft) N-NE 22 0 min 0 W/m 7,6 C 8,2 C 0,0 km/h (0 Bft)
26/11/2011 10:35 8,3 C 96 % 1032,6 hPa 0,0 mm 0,0 km/h (0 Bft) N-NE 22 0 min 0 W/m 7,7 C 8,3 C 0,0 km/h (0 Bft)
26/11/2011 10:40 8,3 C 96 % 1032,5 hPa 0,0 mm 0,0 km/h (0 Bft) N-NE 22 0 min 0 W/m 7,7 C 8,3 C 0,0 km/h (0 Bft)
26/11/2011 10:45 8,4 C 96 % 1032,6 hPa 0,0 mm 0,0 km/h (0 Bft) N-NE 22 0 min 0 W/m 7,8 C 8,4 C 0,0 km/h (0 Bft)
26/11/2011 10:50 8,4 C 96 % 1032,6 hPa 0,0 mm 0,0 km/h (0 Bft) N-NE 22 0 min 0 W/m 7,8 C 8,4 C 0,0 km/h (0 Bft)
26/11/2011 10:55 8,4 C 96 % 1032,6 hPa 0,0 mm 0,0 km/h (0 Bft) N-NE 22 0 min 0 W/m 7,8 C 8,4 C 0,0 km/h (0 Bft)
26/11/2011 11:00 8,5 C 96 % 1032,6 hPa 0,0 mm 0,0 km/h (0 Bft) N-NE 22 0 min 0 W/m 7,9 C 8,5 C 0,0 km/h (0 Bft)
26/11/2011 11:05 8,5 C 96 % 1032,5 hPa 0,0 mm 0,0 km/h (0 Bft) N-NE 22 0 min 0 W/m 7,9 C 8,5 C 0,0 km/h (0 Bft)
26/11/2011 11:10 8,6 C 96 % 1032,7 hPa 0,0 mm 0,0 km/h (0 Bft) N-NE 22 0 min 0 W/m 8,0 C 8,6 C 0,0 km/h (0 Bft)
26/11/2011 11:15 8,6 C 95 % 1032,7 hPa 0,0 mm 0,0 km/h (0 Bft) N-NE 22 0 min 0 W/m 7,8 C 8,6 C 0,0 km/h (0 Bft)
26/11/2011 11:20 8,6 C 95 % 1032,7 hPa 0,0 mm 0,0 km/h (0 Bft) N-NE 22 0 min 0 W/m 7,8 C 8,6 C 0,0 km/h (0 Bft)
26/11/2011 11:25 8,8 C 96 % 1032,7 hPa 0,0 mm 0,0 km/h (0 Bft) NE 45 0 min 0 W/m 8,2 C 8,8 C 0,0 km/h (0 Bft)
26/11/2011 11:30 8,8 C 95 % 1032,7 hPa 0,0 mm 0,0 km/h (0 Bft) NE 45 0 min 0 W/m 8,0 C 8,8 C 0,0 km/h (0 Bft)
26/11/2011 11:35 8,8 C 96 % 1032,6 hPa 0,0 mm 0,0 km/h (0 Bft) NE 45 0 min 0 W/m 8,2 C 8,8 C 0,0 km/h (0 Bft)
26/11/2011 11:40 8,9 C 96 % 1032,6 hPa 0,0 mm 0,0 km/h (0 Bft) NE 45 0 min 0 W/m 8,3 C 8,9 C 0,0 km/h (0 Bft)
26/11/2011 11:45 8,9 C 96 % 1032,6 hPa 0,0 mm 0,0 km/h (0 Bft) NE 45 0 min 0 W/m 8,3 C 8,9 C 0,0 km/h (0 Bft)
26/11/2011 11:50 9,0 C 96 % 1032,6 hPa 0,0 mm 0,0 km/h (0 Bft) NE 45 0 min 0 W/m 8,4 C 9,0 C 3,2 km/h (1 Bft)
26/11/2011 11:55 9,1 C 96 % 1032,5 hPa 0,0 mm 0,0 km/h (0 Bft) NE 45 0 min 0 W/m 8,5 C 9,1 C 0,0 km/h (0 Bft)
26/11/2011 12:00 9,1 C 96 % 1032,4 hPa 0,0 mm 0,0 km/h (0 Bft) NE 45 0 min 0 W/m 8,5 C 9,1 C 0,0 km/h (0 Bft)
26/11/2011 12:05 9,2 C 96 % 1032,4 hPa 0,0 mm 0,0 km/h (0 Bft) NE 45 0 min 0 W/m 8,6 C 9,2 C 0,0 km/h (0 Bft)
26/11/2011 12:10 9,2 C 96 % 1032,5 hPa 0,0 mm 0,0 km/h (0 Bft) N 360 0 min 0 W/m 8,6 C 9,2 C 0,0 km/h (0 Bft)
26/11/2011 12:15 9,3 C 96 % 1032,3 hPa 0,0 mm 0,0 km/h (0 Bft) N 360 0 min 0 W/m 8,7 C 9,3 C 0,0 km/h (0 Bft)
26/11/2011 12:20 9,3 C 96 % 1032,3 hPa 0,0 mm 0,0 km/h (0 Bft) N 360 0 min 0 W/m 8,7 C 9,3 C 0,0 km/h (0 Bft)
26/11/2011 12:25 9,4 C 96 % 1032,1 hPa 0,0 mm 0,0 km/h (0 Bft) N 360 0 min 0 W/m 8,8 C 9,4 C 0,0 km/h (0 Bft)
26/11/2011 12:30 9,4 C 96 % 1032,1 hPa 0,0 mm 0,0 km/h (0 Bft) N 360 0 min 0 W/m 8,8 C 9,4 C 0,0 km/h (0 Bft)
26/11/2011 12:35 9,4 C 96 % 1032,0 hPa 0,0 mm 0,0 km/h (0 Bft) N 360 0 min 0 W/m 8,8 C 9,4 C 0,0 km/h (0 Bft)
26/11/2011 12:40 9,4 C 96 % 1031,9 hPa 0,0 mm 0,0 km/h (0 Bft) N 360 0 min 0 W/m 8,8 C 9,4 C 0,0 km/h (0 Bft)
26/11/2011 12:45 9,5 C 96 % 1031,9 hPa 0,0 mm 0,0 km/h (0 Bft) N 360 0 min 0 W/m 8,9 C 9,5 C 0,0 km/h (0 Bft)
26/11/2011 12:50 9,6 C 96 % 1031,8 hPa 0,0 mm 0,0 km/h (0 Bft) N 360 0 min 0 W/m 9,0 C 9,6 C 0,0 km/h (0 Bft)
26/11/2011 12:55 9,7 C 96 % 1031,8 hPa 0,0 mm 0,0 km/h (0 Bft) N 360 0 min 0 W/m 9,1 C 9,7 C 0,0 km/h (0 Bft)
26/11/2011 13:00 9,7 C 96 % 1031,8 hPa 0,0 mm 0,0 km/h (0 Bft) N 360 0 min 0 W/m 9,1 C 9,7 C 0,0 km/h (0 Bft)
26/11/2011 13:05 9,7 C 96 % 1031,6 hPa 0,0 mm 0,0 km/h (0 Bft) N 360 0 min 0 W/m 9,1 C 9,7 C 0,0 km/h (0 Bft)
26/11/2011 13:10 9,8 C 96 % 1031,5 hPa 0,0 mm 0,0 km/h (0 Bft) N 360 0 min 0 W/m 9,2 C 9,8 C 0,0 km/h (0 Bft)
26/11/2011 13:15 9,8 C 96 % 1031,5 hPa 0,0 mm 0,0 km/h (0 Bft) N 360 0 min 0 W/m 9,2 C 9,8 C 0,0 km/h (0 Bft)
26/11/2011 13:20 9,8 C 96 % 1031,5 hPa 0,0 mm 0,0 km/h (0 Bft) N 360 0 min 0 W/m 9,2 C 9,8 C 0,0 km/h (0 Bft)
26/11/2011 13:25 9,8 C 96 % 1031,5 hPa 0,0 mm 0,0 km/h (0 Bft) N 360 0 min 0 W/m 9,2 C 9,8 C 0,0 km/h (0 Bft)
26/11/2011 13:30 9,8 C 96 % 1031,4 hPa 0,0 mm 0,0 km/h (0 Bft) S-SO 202 0 min 0 W/m 9,2 C 9,8 C 0,0 km/h (0 Bft)
26/11/2011 13:35 9,8 C 96 % 1031,3 hPa 0,0 mm 0,0 km/h (0 Bft) SO 225 0 min 0 W/m 9,2 C 9,8 C 0,0 km/h (0 Bft)
26/11/2011 13:40 9,8 C 96 % 1031,3 hPa 0,0 mm 0,0 km/h (0 Bft) SO 225 0 min 0 W/m 9,2 C 9,8 C 0,0 km/h (0 Bft)
26/11/2011 13:45 9,8 C 96 % 1031,3 hPa 0,0 mm 0,0 km/h (0 Bft) SO 225 0 min 0 W/m 9,2 C 9,8 C 0,0 km/h (0 Bft)
26/11/2011 13:50 9,8 C 96 % 1031,2 hPa 0,0 mm 0,0 km/h (0 Bft) SO 225 0 min 0 W/m 9,2 C 9,8 C 0,0 km/h (0 Bft)
26/11/2011 13:55 9,7 C 96 % 1031,2 hPa 0,0 mm 0,0 km/h (0 Bft) SO 225 0 min 0 W/m 9,1 C 9,7 C 0,0 km/h (0 Bft)
26/11/2011 14:00 9,8 C 96 % 1031,1 hPa 0,0 mm 0,0 km/h (0 Bft) SO 225 0 min 0 W/m 9,2 C 9,8 C 0,0 km/h (0 Bft)
26/11/2011 14:05 9,7 C 96 % 1031,1 hPa 0,0 mm 0,0 km/h (0 Bft) SO 225 0 min 0 W/m 9,1 C 9,7 C 0,0 km/h (0 Bft)
26/11/2011 14:10 9,7 C 96 % 1031,1 hPa 0,0 mm 0,0 km/h (0 Bft) SO 225 0 min 0 W/m 9,1 C 9,7 C 0,0 km/h (0 Bft)
26/11/2011 14:15 9,6 C 96 % 1031,0 hPa 0,0 mm 0,4 km/h (0 Bft) SO 225 0 min 0 W/m 9,0 C 9,6 C 4,0 km/h (1 Bft)
26/11/2011 14:20 9,6 C 96 % 1031,0 hPa 0,0 mm 0,4 km/h (0 Bft) O-SO 247 0 min 0 W/m 9,0 C 9,6 C 3,6 km/h (1 Bft)
26/11/2011 14:25 9,6 C 96 % 1031,0 hPa 0,0 mm 0,0 km/h (0 Bft) SO 225 0 min 0 W/m 9,0 C 9,6 C 0,0 km/h (0 Bft)
26/11/2011 14:30 9,6 C 96 % 1030,9 hPa 0,0 mm 0,0 km/h (0 Bft) SO 225 0 min 0 W/m 9,0 C 9,6 C 0,0 km/h (0 Bft)
26/11/2011 14:35 9,6 C 96 % 1030,8 hPa 0,0 mm 0,0 km/h (0 Bft) SO 225 0 min 0 W/m 9,0 C 9,6 C 0,0 km/h (0 Bft)
26/11/2011 14:40 9,7 C 96 % 1030,8 hPa 0,0 mm 0,0 km/h (0 Bft) SO 225 0 min 0 W/m 9,1 C 9,7 C 0,0 km/h (0 Bft)
26/11/2011 14:45 9,7 C 96 % 1030,7 hPa 0,0 mm 0,0 km/h (0 Bft) SO 225 0 min 0 W/m 9,1 C 9,7 C 0,0 km/h (0 Bft)
26/11/2011 14:50 9,7 C 96 % 1030,7 hPa 0,0 mm 0,0 km/h (0 Bft) SO 225 0 min 0 W/m 9,1 C 9,7 C 0,0 km/h (0 Bft)
26/11/2011 14:55 9,8 C 96 % 1030,6 hPa 0,0 mm 0,0 km/h (0 Bft) SO 225 0 min 0 W/m 9,2 C 9,8 C 0,0 km/h (0 Bft)
26/11/2011 15:00 9,8 C 96 % 1030,6 hPa 0,0 mm 0,0 km/h (0 Bft) SO 225 0 min 0 W/m 9,2 C 9,8 C 0,0 km/h (0 Bft)
26/11/2011 15:05 9,8 C 95 % 1030,5 hPa 0,0 mm 0,0 km/h (0 Bft) S-SO 202 0 min 0 W/m 9,0 C 9,8 C 3,2 km/h (1 Bft)
26/11/2011 15:10 9,7 C 95 % 1030,5 hPa 0,0 mm 0,0 km/h (0 Bft) S-SO 202 0 min 0 W/m 8,9 C 9,7 C 0,0 km/h (0 Bft)
26/11/2011 15:15 9,7 C 95 % 1030,4 hPa 0,0 mm 0,0 km/h (0 Bft) S-SO 202 0 min 0 W/m 8,9 C 9,7 C 0,0 km/h (0 Bft)
26/11/2011 15:20 9,7 C 95 % 1030,4 hPa 0,0 mm 0,0 km/h (0 Bft) SO 225 0 min 0 W/m 8,9 C 9,7 C 0,0 km/h (0 Bft)
26/11/2011 15:25 9,7 C 95 % 1030,4 hPa 0,0 mm 0,0 km/h (0 Bft) SO 225 0 min 0 W/m 8,9 C 9,7 C 0,0 km/h (0 Bft)
26/11/2011 15:30 9,7 C 95 % 1030,4 hPa 0,0 mm 0,0 km/h (0 Bft) SO 225 0 min 0 W/m 8,9 C 9,7 C 0,0 km/h (0 Bft)
26/11/2011 15:35 9,7 C 95 % 1030,3 hPa 0,0 mm 0,0 km/h (0 Bft) SO 225 0 min 0 W/m 8,9 C 9,7 C 0,0 km/h (0 Bft)
26/11/2011 15:40 9,7 C 95 % 1030,3 hPa 0,0 mm 0,0 km/h (0 Bft) SO 225 0 min 0 W/m 8,9 C 9,7 C 0,0 km/h (0 Bft)
26/11/2011 15:45 9,7 C 95 % 1030,3 hPa 0,0 mm 0,0 km/h (0 Bft) SO 225 0 min 0 W/m 8,9 C 9,7 C 0,0 km/h (0 Bft)
26/11/2011 15:50 9,7 C 95 % 1030,3 hPa 0,0 mm 0,0 km/h (0 Bft) SO 225 0 min 0 W/m 8,9 C 9,7 C 0,0 km/h (0 Bft)
26/11/2011 15:55 9,6 C 95 % 1030,3 hPa 0,0 mm 0,0 km/h (0 Bft) SO 225 0 min 0 W/m 8,8 C 9,6 C 0,0 km/h (0 Bft)
26/11/2011 16:00 9,6 C 95 % 1030,4 hPa 0,0 mm 0,0 km/h (0 Bft) SO 225 0 min 0 W/m 8,8 C 9,6 C 0,0 km/h (0 Bft)
26/11/2011 16:05 9,5 C 95 % 1030,3 hPa 0,0 mm 0,0 km/h (0 Bft) SO 225 0 min 0 W/m 8,7 C 9,5 C 0,0 km/h (0 Bft)
26/11/2011 16:10 9,5 C 95 % 1030,2 hPa 0,0 mm 0,0 km/h (0 Bft) SO 225 0 min 0 W/m 8,7 C 9,5 C 0,0 km/h (0 Bft)
26/11/2011 16:15 9,5 C 95 % 1030,2 hPa 0,0 mm 0,0 km/h (0 Bft) SO 225 0 min 0 W/m 8,7 C 9,5 C 0,0 km/h (0 Bft)
26/11/2011 16:20 9,4 C 95 % 1030,2 hPa 0,0 mm 0,0 km/h (0 Bft) SO 225 0 min 0 W/m 8,6 C 9,4 C 0,0 km/h (0 Bft)
26/11/2011 16:25 9,4 C 95 % 1030,1 hPa 0,0 mm 0,0 km/h (0 Bft) SO 225 0 min 0 W/m 8,6 C 9,4 C 0,0 km/h (0 Bft)
26/11/2011 16:30 9,4 C 95 % 1030,1 hPa 0,0 mm 0,0 km/h (0 Bft) SO 225 0 min 0 W/m 8,6 C 9,4 C 0,0 km/h (0 Bft)
26/11/2011 16:35 9,4 C 95 % 1030,1 hPa 0,0 mm 0,0 km/h (0 Bft) S 180 0 min 0 W/m 8,6 C 9,4 C 0,0 km/h (0 Bft)
26/11/2011 16:40 9,4 C 95 % 1030,1 hPa 0,0 mm 0,0 km/h (0 Bft) S 180 0 min 0 W/m 8,6 C 9,4 C 0,0 km/h (0 Bft)
26/11/2011 16:45 9,4 C 95 % 1030,0 hPa 0,0 mm 0,0 km/h (0 Bft) S 180 0 min 0 W/m 8,6 C 9,4 C 1,4 km/h (1 Bft)
26/11/2011 16:50 9,3 C 94 % 1030,0 hPa 0,0 mm 2,2 km/h (1 Bft) S-SE 157 0 min 0 W/m 8,4 C 9,3 C 4,3 km/h (1 Bft)
26/11/2011 16:55 9,2 C 94 % 1030,0 hPa 0,0 mm 0,0 km/h (0 Bft) S-SE 157 0 min 0 W/m 8,3 C 9,2 C 0,0 km/h (0 Bft)
26/11/2011 17:00 9,2 C 94 % 1030,0 hPa 0,0 mm 1,4 km/h (1 Bft) S-SO 202 0 min 0 W/m 8,3 C 9,2 C 1,4 km/h (1 Bft)
26/11/2011 17:05 9,2 C 94 % 1030,0 hPa 0,0 mm 0,0 km/h (0 Bft) S-SO 202 0 min 0 W/m 8,3 C 9,2 C 0,0 km/h (0 Bft)
26/11/2011 17:10 9,1 C 94 % 1030,0 hPa 0,0 mm 0,7 km/h (0 Bft) S-SE 157 0 min 0 W/m 8,2 C 9,1 C 0,7 km/h (0 Bft)
26/11/2011 17:15 9,1 C 94 % 1029,9 hPa 0,0 mm 0,0 km/h (0 Bft) S-SE 157 0 min 0 W/m 8,2 C 9,1 C 0,0 km/h (0 Bft)
26/11/2011 17:20 9,1 C 94 % 1029,8 hPa 0,0 mm 0,0 km/h (0 Bft) S-SE 157 0 min 0 W/m 8,2 C 9,1 C 0,0 km/h (0 Bft)
26/11/2011 17:25 9,1 C 94 % 1029,9 hPa 0,0 mm 0,0 km/h (0 Bft) S-SE 157 0 min 0 W/m 8,2 C 9,1 C 0,0 km/h (0 Bft)
26/11/2011 17:30 9,1 C 94 % 1029,9 hPa 0,0 mm 0,0 km/h (0 Bft) S-SE 157 0 min 0 W/m 8,2 C 9,1 C 0,0 km/h (0 Bft)
26/11/2011 17:35 9,1 C 94 % 1029,9 hPa 0,0 mm 0,0 km/h (0 Bft) S-SE 157 0 min 0 W/m 8,2 C 9,1 C 0,0 km/h (0 Bft)
26/11/2011 17:40 9,1 C 94 % 1029,9 hPa 0,0 mm 0,0 km/h (0 Bft) S-SE 157 0 min 0 W/m 8,2 C 9,1 C 0,0 km/h (0 Bft)
26/11/2011 17:45 9,0 C 94 % 1029,8 hPa 0,0 mm 0,0 km/h (0 Bft) O-SO 247 0 min 0 W/m 8,1 C 9,0 C 0,0 km/h (0 Bft)
26/11/2011 17:50 8,9 C 94 % 1029,8 hPa 0,0 mm 0,7 km/h (0 Bft) S-SE 157 0 min 0 W/m 8,0 C 8,9 C 0,7 km/h (0 Bft)
26/11/2011 17:55 8,9 C 94 % 1029,8 hPa 0,0 mm 0,7 km/h (0 Bft) S-SO 202 0 min 0 W/m 8,0 C 8,9 C 3,2 km/h (1 Bft)
26/11/2011 18:00 8,9 C 94 % 1029,8 hPa 0,0 mm 0,0 km/h (0 Bft) S-SO 202 0 min 0 W/m 8,0 C 8,9 C 0,0 km/h (0 Bft)
26/11/2011 18:05 8,9 C 94 % 1029,9 hPa 0,0 mm 0,0 km/h (0 Bft) S-SO 202 0 min 0 W/m 8,0 C 8,9 C 0,0 km/h (0 Bft)
26/11/2011 18:10 8,9 C 94 % 1029,9 hPa 0,0 mm 0,0 km/h (0 Bft) S-SO 202 0 min 0 W/m 8,0 C 8,9 C 0,0 km/h (0 Bft)
26/11/2011 18:15 8,9 C 94 % 1029,9 hPa 0,0 mm 0,0 km/h (0 Bft) S-SO 202 0 min 0 W/m 8,0 C 8,9 C 0,0 km/h (0 Bft)
26/11/2011 18:20 8,9 C 94 % 1029,9 hPa 0,0 mm 0,0 km/h (0 Bft) S-SO 202 0 min 0 W/m 8,0 C 8,9 C 0,0 km/h (0 Bft)
26/11/2011 18:25 8,9 C 94 % 1030,0 hPa 0,0 mm 0,0 km/h (0 Bft) S-SO 202 0 min 0 W/m 8,0 C 8,9 C 0,0 km/h (0 Bft)
26/11/2011 18:30 8,9 C 94 % 1029,9 hPa 0,0 mm 0,0 km/h (0 Bft) S-SO 202 0 min 0 W/m 8,0 C 8,9 C 0,0 km/h (0 Bft)
26/11/2011 18:35 8,9 C 94 % 1029,9 hPa 0,0 mm 0,0 km/h (0 Bft) SO 225 0 min 0 W/m 8,0 C 8,9 C 0,0 km/h (0 Bft)
26/11/2011 18:40 8,9 C 94 % 1029,9 hPa 0,0 mm 0,0 km/h (0 Bft) SO 225 0 min 0 W/m 8,0 C 8,9 C 0,0 km/h (0 Bft)
26/11/2011 18:45 8,9 C 94 % 1029,9 hPa 0,0 mm 0,0 km/h (0 Bft) SO 225 0 min 0 W/m 8,0 C 8,9 C 0,0 km/h (0 Bft)
26/11/2011 18:50 8,9 C 94 % 1029,9 hPa 0,0 mm 0,0 km/h (0 Bft) SO 225 0 min 0 W/m 8,0 C 8,9 C 0,0 km/h (0 Bft)
26/11/2011 18:55 8,8 C 94 % 1029,9 hPa 0,0 mm 0,0 km/h (0 Bft) SO 225 0 min 0 W/m 7,9 C 8,8 C 0,0 km/h (0 Bft)
26/11/2011 19:00 8,8 C 94 % 1029,9 hPa 0,0 mm 0,0 km/h (0 Bft) SO 225 0 min 0 W/m 7,9 C 8,8 C 0,0 km/h (0 Bft)
26/11/2011 19:05 8,8 C 94 % 1030,0 hPa 0,0 mm 0,0 km/h (0 Bft) SO 225 0 min 0 W/m 7,9 C 8,8 C 0,0 km/h (0 Bft)
26/11/2011 19:10 8,8 C 94 % 1030,0 hPa 0,0 mm 0,0 km/h (0 Bft) SO 225 0 min 0 W/m 7,9 C 8,8 C 0,0 km/h (0 Bft)
26/11/2011 19:15 8,8 C 94 % 1029,9 hPa 0,0 mm 0,0 km/h (0 Bft) SO 225 0 min 0 W/m 7,9 C 8,8 C 0,0 km/h (0 Bft)
26/11/2011 19:20 8,8 C 94 % 1029,9 hPa 0,0 mm 0,0 km/h (0 Bft) SO 225 0 min 0 W/m 7,9 C 8,8 C 0,0 km/h (0 Bft)
26/11/2011 19:25 8,8 C 94 % 1029,9 hPa 0,0 mm 0,0 km/h (0 Bft) SO 225 0 min 0 W/m 7,9 C 8,8 C 0,0 km/h (0 Bft)
26/11/2011 19:30 8,8 C 94 % 1030,0 hPa 0,0 mm 0,0 km/h (0 Bft) SO 225 0 min 0 W/m 7,9 C 8,8 C 0,0 km/h (0 Bft)
26/11/2011 19:35 8,8 C 94 % 1030,0 hPa 0,0 mm 0,0 km/h (0 Bft) SO 225 0 min 0 W/m 7,9 C 8,8 C 0,0 km/h (0 Bft)
26/11/2011 19:40 8,8 C 94 % 1030,0 hPa 0,0 mm 0,0 km/h (0 Bft) SO 225 0 min 0 W/m 7,9 C 8,8 C 0,0 km/h (0 Bft)
26/11/2011 19:45 8,8 C 94 % 1030,0 hPa 0,0 mm 0,0 km/h (0 Bft) O-SO 247 0 min 0 W/m 7,9 C 8,8 C 0,0 km/h (0 Bft)
26/11/2011 19:50 8,8 C 94 % 1030,0 hPa 0,0 mm 0,0 km/h (0 Bft) O-SO 247 0 min 0 W/m 7,9 C 8,8 C 0,0 km/h (0 Bft)
26/11/2011 19:55 8,8 C 94 % 1030,0 hPa 0,0 mm 0,0 km/h (0 Bft) O-SO 247 0 min 0 W/m 7,9 C 8,8 C 0,0 km/h (0 Bft)
26/11/2011 20:00 8,8 C 94 % 1030,1 hPa 0,0 mm 0,0 km/h (0 Bft) O-SO 247 0 min 0 W/m 7,9 C 8,8 C 0,0 km/h (0 Bft)
26/11/2011 20:05 8,8 C 94 % 1030,2 hPa 0,0 mm 0,0 km/h (0 Bft) S-SO 202 0 min 0 W/m 7,9 C 8,8 C 0,0 km/h (0 Bft)
26/11/2011 20:10 8,8 C 94 % 1030,2 hPa 0,0 mm 0,0 km/h (0 Bft) S-SO 202 0 min 0 W/m 7,9 C 8,8 C 0,0 km/h (0 Bft)
26/11/2011 20:15 8,8 C 94 % 1030,2 hPa 0,0 mm 0,0 km/h (0 Bft) S-SO 202 0 min 0 W/m 7,9 C 8,8 C 0,0 km/h (0 Bft)
26/11/2011 20:20 8,8 C 94 % 1030,3 hPa 0,0 mm 0,0 km/h (0 Bft) S-SO 202 0 min 0 W/m 7,9 C 8,8 C 0,0 km/h (0 Bft)
26/11/2011 20:25 8,8 C 94 % 1030,2 hPa 0,0 mm 0,0 km/h (0 Bft) S-SO 202 0 min 0 W/m 7,9 C 8,8 C 0,0 km/h (0 Bft)
26/11/2011 20:30 8,8 C 94 % 1030,2 hPa 0,0 mm 0,0 km/h (0 Bft) S-SO 202 0 min 0 W/m 7,9 C 8,8 C 0,0 km/h (0 Bft)
26/11/2011 20:35 8,8 C 94 % 1030,2 hPa 0,0 mm 0,0 km/h (0 Bft) S-SO 202 0 min 0 W/m 7,9 C 8,8 C 0,0 km/h (0 Bft)
26/11/2011 20:40 8,8 C 94 % 1030,2 hPa 0,0 mm 0,0 km/h (0 Bft) S-SO 202 0 min 0 W/m 7,9 C 8,8 C 0,0 km/h (0 Bft)
26/11/2011 20:45 8,8 C 94 % 1030,2 hPa 0,0 mm 0,0 km/h (0 Bft) S-SO 202 0 min 0 W/m 7,9 C 8,8 C 0,0 km/h (0 Bft)
26/11/2011 20:50 8,8 C 94 % 1030,2 hPa 0,0 mm 0,0 km/h (0 Bft) S-SO 202 0 min 0 W/m 7,9 C 8,8 C 0,0 km/h (0 Bft)
26/11/2011 20:55 8,8 C 94 % 1030,2 hPa 0,0 mm 0,0 km/h (0 Bft) S-SO 202 0 min 0 W/m 7,9 C 8,8 C 0,0 km/h (0 Bft)
26/11/2011 21:00 8,8 C 94 % 1030,1 hPa 0,0 mm 0,0 km/h (0 Bft) S-SO 202 0 min 0 W/m 7,9 C 8,8 C 0,0 km/h (0 Bft)
26/11/2011 21:05 8,7 C 94 % 1030,0 hPa 0,0 mm 0,0 km/h (0 Bft) S-SO 202 0 min 0 W/m 7,8 C 8,7 C 0,0 km/h (0 Bft)
26/11/2011 21:10 8,7 C 94 % 1030,1 hPa 0,0 mm 0,0 km/h (0 Bft) O-SO 247 0 min 0 W/m 7,8 C 8,7 C 0,0 km/h (0 Bft)
26/11/2011 21:15 8,7 C 94 % 1030,1 hPa 0,0 mm 0,0 km/h (0 Bft) O-SO 247 0 min 0 W/m 7,8 C 8,7 C 0,0 km/h (0 Bft)
26/11/2011 21:20 8,7 C 94 % 1030,1 hPa 0,0 mm 0,0 km/h (0 Bft) O-SO 247 0 min 0 W/m 7,8 C 8,7 C 0,0 km/h (0 Bft)
26/11/2011 21:25 8,7 C 94 % 1030,1 hPa 0,0 mm 0,0 km/h (0 Bft) O-SO 247 0 min 0 W/m 7,8 C 8,7 C 0,0 km/h (0 Bft)
26/11/2011 21:30 8,6 C 94 % 1030,1 hPa 0,0 mm 0,0 km/h (0 Bft) O-SO 247 0 min 0 W/m 7,7 C 8,6 C 0,0 km/h (0 Bft)
26/11/2011 21:35 8,6 C 94 % 1030,1 hPa 0,0 mm 1,4 km/h (1 Bft) O-SO 247 0 min 0 W/m 7,7 C 8,6 C 4,0 km/h (1 Bft)
26/11/2011 21:40 8,6 C 94 % 1030,0 hPa 0,0 mm 0,0 km/h (0 Bft) O 270 0 min 0 W/m 7,7 C 8,6 C 0,0 km/h (0 Bft)
26/11/2011 21:45 8,6 C 94 % 1030,0 hPa 0,0 mm 0,0 km/h (0 Bft) O 270 0 min 0 W/m 7,7 C 8,6 C 0,0 km/h (0 Bft)
26/11/2011 21:50 8,6 C 94 % 1030,0 hPa 0,0 mm 0,0 km/h (0 Bft) O-NO 292 0 min 0 W/m 7,7 C 8,6 C 0,0 km/h (0 Bft)
26/11/2011 21:55 8,6 C 94 % 1029,9 hPa 0,0 mm 0,0 km/h (0 Bft) O-NO 292 0 min 0 W/m 7,7 C 8,6 C 0,0 km/h (0 Bft)
26/11/2011 22:00 8,6 C 94 % 1030,0 hPa 0,0 mm 0,0 km/h (0 Bft) O-NO 292 0 min 0 W/m 7,7 C 8,6 C 0,0 km/h (0 Bft)
26/11/2011 22:05 8,6 C 94 % 1029,9 hPa 0,0 mm 0,0 km/h (0 Bft) O-NO 292 0 min 0 W/m 7,7 C 8,6 C 0,0 km/h (0 Bft)
26/11/2011 22:10 8,5 C 94 % 1029,9 hPa 0,0 mm 0,0 km/h (0 Bft) O-NO 292 0 min 0 W/m 7,6 C 8,5 C 0,0 km/h (0 Bft)
26/11/2011 22:15 8,5 C 94 % 1029,8 hPa 0,0 mm 0,0 km/h (0 Bft) O-NO 292 0 min 0 W/m 7,6 C 8,5 C 0,0 km/h (0 Bft)
26/11/2011 22:20 8,5 C 94 % 1029,8 hPa 0,0 mm 0,0 km/h (0 Bft) O-NO 292 0 min 0 W/m 7,6 C 8,5 C 0,0 km/h (0 Bft)
26/11/2011 22:25 8,5 C 94 % 1029,8 hPa 0,0 mm 0,0 km/h (0 Bft) O-NO 292 0 min 0 W/m 7,6 C 8,5 C 0,0 km/h (0 Bft)
26/11/2011 22:30 8,5 C 94 % 1029,7 hPa 0,0 mm 0,0 km/h (0 Bft) O-NO 292 0 min 0 W/m 7,6 C 8,5 C 0,0 km/h (0 Bft)
26/11/2011 22:35 8,4 C 94 % 1029,7 hPa 0,0 mm 0,0 km/h (0 Bft) O-NO 292 0 min 0 W/m 7,5 C 8,4 C 0,0 km/h (0 Bft)
26/11/2011 22:40 8,4 C 94 % 1029,6 hPa 0,0 mm 0,0 km/h (0 Bft) O-SO 247 0 min 0 W/m 7,5 C 8,4 C 0,0 km/h (0 Bft)
26/11/2011 22:45 8,4 C 94 % 1029,6 hPa 0,0 mm 0,0 km/h (0 Bft) O-SO 247 0 min 0 W/m 7,5 C 8,4 C 0,0 km/h (0 Bft)
26/11/2011 22:50 8,4 C 94 % 1029,5 hPa 0,0 mm 0,0 km/h (0 Bft) S-SE 157 0 min 0 W/m 7,5 C 8,4 C 2,9 km/h (1 Bft)
26/11/2011 22:55 8,4 C 94 % 1029,4 hPa 0,0 mm 0,0 km/h (0 Bft) S-SE 157 0 min 0 W/m 7,5 C 8,4 C 0,0 km/h (0 Bft)
26/11/2011 23:00 8,4 C 94 % 1029,5 hPa 0,0 mm 0,0 km/h (0 Bft) S-SE 157 0 min 0 W/m 7,5 C 8,4 C 0,0 km/h (0 Bft)
_ Min-Heure 00:10 23:00 22:55 - 23:00 - - - - 00:10 00:10 23:00
Minimum _ 6,1 C 94 % 1029,4 hPa - 0,0 km/h (0 Bft) - - - - 5,4 C 6,1 C 0,0 km/h (0 Bft)
_ Max-Heure 15:05 15:00 11:30 01:10 16:50 - - 23:00 23:00 15:00 15:05 16:50
Maximum _ 9,8 C 96 % 1032,7 hPa 0,1 mm 2,2 km/h
S-SE (1 Bft)
- - 0 min 0 W/m 9,2 C 9,8 C 4,3 km/h
S-SE (1 Bft)
Moyenne _ 8,2 C 95 % 1031,2 hPa #0,4 mm 0,0 km/h (0 Bft) SO - #0 min. 0 W/m 7,5 C 8,2 C 0,2 km/h (0 Bft)
Saint Bonnet de Bellac- Haute Vienne - France